Погода в Порто Черво

Италия     41°07′54″N   9°32′05″E
темп.,
°C
ветер,
м/с
пор.,
м/с
влажн.,
%
обл.,
%
осадки,
мм/ч
давл.,
гПа
погр.,
м
17 мая, пн
пн1723:00+17з111585100 0.0 1010452
02:00+17зюз12168661 0.0 1010473
05:00+16з11148762 0.0 1010516
08:00+16з12158352 0.0 1011699
11:00+16з131777100 0.0 1013972
14:00+16з1518715 0.0 1014982
17:00+16з151874100 0.0 1014913
20:00+16з1519755 0.0 10131046
18 мая, вт
вт1823:00+16з1419742 0.0 1014997
02:00+16з1518795 0.0 1015949
05:00+16з12177512 0.0 1015741
08:00+16зюз131778100 0.0 1016680
11:00+17з14177194 0.0 1017676
14:00+16з151871100 0.0 1017713
17:00+17з14186956 0.0 1016570
20:00+16з121675100 0.0 1016624
19 мая, ср
ср1923:00+16зюз9138098 0.0 1017723
02:00+16зюз9137984 0.0 1016755
05:00+16зюз10147754 0.1 1015743
08:00+16з12157898 0.1 10171073
11:00+16з12157496 0.0 1017924
14:00+16з14167398 0.0 1017737
17:00+16з1416741 0.0 1016794
20:00+16з1417765 0.0 10161084
20 мая, чт
чт2023:00+16зсз12167670 0.0 1017916
02:00+17зсз14186996 0.0 10151040
05:00+16зсз131573100 0.0 1014768
08:00+16зсз997016 0.0 1016673
11:00+16з99670 0.0 1017717
14:00+16зсз87700 0.0 1018376
17:00+16зсз887137 0.0 1018282
20:00+16зсз77790 0.0 1020271
21 мая, пт
пт2123:00+16з67840 0.0 1022261
02:00+15з558298 0.0 1022204
05:00+15з33765 0.0 1022162
08:00+16з44705 0.0 1023183
11:00+16сз11685 0.0 1024146
14:00+18вюв44600 0.0 1023179
17:00+18ю34620 0.0 1022231
20:00+17ююз33656 0.0 102174